Home > Weather > Maribor > Past weeks

Flag for Slovenia Weather for the Past 2 Weeks in Maribor, Slovenia

Now
43 °F

Rain. Overcast.


Feels Like: 40 °F
Forecast: 38 / 45 °F
Wind: 5 mph from North

Location: Maribor / Slivnica

Current Time: Feb 14, 2016 at 6:17:13 PM

Latest Report: Feb 14, 2016 at 5:00 PM


Visibility: 2 mi

Pressure: 29.32 "Hg

Humidity: 95%

Dew point: 42 °F

Location of MariborLocation

Historic Weather in Maribor — Graph

°F

Maribor Temperature Yesterday

Maximum temperature yesterday: 48 °F (at 2:00 PM)
Minimum temperature yesterday: 33 °F (at 6:00 AM)
Average temperature yesterday: 41 °F

High & Low Weather Summary for the Past Weeks

 TemperatureHumidityPressure
High64 °F (Feb 1, 2:00 PM)99% (Feb 1, 8:00 AM)30.42 "Hg (Feb 1, 8:00 AM)
Low28 °F (Feb 6, 6:00 AM)34% (Feb 4, 3:00 PM)29.21 "Hg (Feb 10, 6:00 AM)
Average44 °F74%29.89 "Hg
* Reported Jan 30 5:00 PM — Feb 14 5:00 PM, Maribor, Weather by CustomWeather, © 2016

Note: Actual official high and low records may vary slightly from our data, if they occured in-between our weather recording intervals... More about our weather records

Advertising

Maribor Weather History for the Previous 24 Hours

 ConditionsComfort  
Time TempWeatherWind HumidityBarometerVisibility
5:00 PM
Sun, Feb 14
43 °FRain. Overcast.5 mph95%29.32 "Hg2 mi
4:00 PM44 °FLight rain. Overcast.2 mph94%29.32 "Hg4 mi
3:00 PM47 °FLight rain. Overcast.3 mph90%29.32 "Hg4 mi
2:00 PM47 °FRain. Overcast.2 mph88%29.32 "Hg4 mi
1:00 PM49 °FLight rain. Overcast.2 mph78%29.35 "Hg12 mi
12:00 PM46 °FOvercast.2 mph73%29.35 "Hg12 mi
11:00 AM47 °FOvercast.5 mph72%29.35 "Hg12 mi
10:00 AM47 °FOvercast.3 mph70%29.32 "Hg12 mi
9:00 AM43 °FPartly sunny.2 mph70%29.35 "Hg12 mi
8:00 AM34 °FPassing clouds.1 mph89%29.38 "Hg12 mi
7:00 AM32 °FPassing clouds.2 mph93%29.38 "Hg12 mi
6:00 AM33 °FClear.1 mph92%29.38 "Hg12 mi
9:00 PM
Sat, Feb 13
43 °FOvercast.7 mph72%29.38 "Hg19 mi
8:00 PM44 °FPassing clouds.7 mph70%29.38 "Hg19 mi
7:00 PM45 °FPassing clouds.7 mph66%29.38 "Hg19 mi
6:00 PM43 °FPassing clouds.7 mph75%29.38 "Hg19 mi
Weather by CustomWeather, © 2016

See weather overviewHow to use our weather pages